Dewpoint
38 38 38 38 37 37 37 35 36 37 37 39 38 39 41 44 43 43 43 47 43 38 38 34 33 32 30 31 30 27 30 31 31 30 27 25 23 19 18 17 16 16 21 27 28 26 25 24 23 24 27 28 27 30
37 38 37 37 37 37 37 36 36 37 37 38 37 40 43 44 43 44 42 46 48 41 39 40 37 35 32 31 32 32 31 28 33 31 31 30 27 26 24 24 20 20 21 25 22 24 29 26 25 31 34 32 31 32
37 37 36 36 37 36 34 35 36 36 38 37 37 41 42 43 43 45 44 46 45 39 36 39 36 37 37 37 37 35 31 31 30 31 27 27 27 23 23 21 21 21 23 28 30 30 29 29 29 29 26 28 27 28
36 36 35 35 34 35 34 35 36 37 38 37 39 43 43 44 45 45 43 46 44 38 34 34 37 37 37 37 37 37 36 35 34 31 32 33 30 26 22 23 22 22 23 22 23 24 22 21 21 23 24 26 27 27
33 33 33 33 33 34 34 35 37 37 37 38 41 43 44 44 44 45 46 45 44 38 35 33 31 30 30 32 32 34 34 34 32 33 33 32 28 28 28 27 26 22 23 25 26 25 26 27 25 24 24 23 25 27
32 33 33 33 32 33 35 36 37 37 37 41 43 43 43 44 43 42 36 44 44 40 38 31 30 28 28 30 31 32 34 34 34 32 33 33 31 30 28 26 25 21 21 23 25 27 28 30 29 25 25 27 29 31
32 31 31 31 33 34 35 36 37 38 41 42 43 43 43 43 43 39 34 35 39 37 35 31 29 26 28 28 29 30 33 31 34 36 34 33 32 32 30 26 26 24 24 26 26 28 30 28 28 28 30 28 32 33
30 31 32 33 33 34 36 37 40 41 39 43 42 42 41 41 41 38 41 42 39 37 38 30 28 26 26 28 30 28 35 37 37 36 34 32 33 33 28 29 28 27 26 28 30 30 31 30 30 30 30 30 30 33
30 32 32 34 34 35 38 39 40 40 42 42 41 41 41 39 37 34 43 42 41 37 33 32 23 24 22 24 28 32 36 33 36 33 33 32 32 30 28 24 23 26 27 28 29 29 30 31 31 31 32 32 32 36
30 31 33 35 35 38 39 40 41 41 41 42 40 38 33 37 41 39 36 35 35 35 33 29 23 24 21 23 32 31 29 31 29 28 29 32 30 28 27 28 29 30 30 30 29 30 33 33 33 33 33 34 35 37
30 32 33 34 36 39 39 40 41 41 40 39 33 34 40 41 37 35 32 31 33 29 30 24 23 24 24 27 29 28 28 28 25 28 29 28 26 28 30 31 32 33 36 35 33 33 34 33 35 37 39 40 41 44
31 33 35 36 39 39 40 40 39 39 40 38 37 40 40 37 33 29 27 32 30 24 21 21 21 25 29 34 30 33 30 30 25 27 31 26 27 28 33 40 42 40 42 39 38 36 35 35 39 40 42 47 48 47
31 34 35 37 39 39 40 38 39 41 39 38 34 34 33 32 25 24 20 25 24 25 27 32 32 36 37 38 35 34 31 29 29 31 27 26 32 38 37 37 38 39 42 43 40 39 37 37 41 46 46 46 46 45
31 36 35 35 36 38 39 40 39 37 35 33 31 24 27 25 23 19 18 17 21 23 22 26 28 29 29 31 30 26 25 26 28 23 23 35 34 37 39 39 38 39 44 42 41 39 41 47 46 43 43 41 39 38
31 31 35 34 35 36 37 39 39 39 35 32 30 22 24 24 24 26 26 22 18 20 25 29 30 31 29 30 32 28 24 25 27 30 32 33 35 38 38 39 39 43 43 43 44 45 44 42 41 40 40 41 39 38
30 33 34 33 35 36 37 39 38 38 36 32 31 25 25 25 27 28 26 26 27 28 31 32 29 30 28 28 27 28 27 25 30 33 35 35 35 37 38 39 42 44 42 42 43 42 42 41 40 41 41 40 38 38
31 33 37 35 36 38 39 39 35 32 32 30 27 27 27 26 27 28 29 27 29 29 29 30 26 23 28 26 21 23 27 32 34 35 35 36 36 38 38 40 42 42 42 41 41 41 41 41 40 40 38 39 38 37
32 37 37 37 37 36 37 37 34 33 28 27 26 26 26 27 27 27 24 23 28 27 26 26 26 23 22 17 18 28 32 34 36 36 36 37 38 39 40 41 41 41 41 40 40 41 42 41 41 39 38 37 35 35
33 36 37 38 39 36 33 33 34 27 26 26 26 26 26 26 26 25 25 26 31 32 32 30 28 24 24 27 29 31 33 34 34 36 36 38 40 39 40 40 41 42 43 43 43 43 42 42 41 39 36 35 35 35
34 33 36 39 38 34 32 33 34 26 21 24 25 25 27 27 26 27 28 27 27 28 30 28 23 25 30 32 33 34 35 36 36 34 35 39 40 41 40 41 40 41 41 39 39 38 39 37 35 36 37 37 37 38
33 36 37 36 37 35 34 31 27 28 26 24 23 24 26 26 27 30 32 29 30 28 26 26 29 31 34 35 35 36 37 37 37 38 37 37 39 41 40 40 41 40 39 39 38 37 38 40 39 40 42 43 43 42
35 36 35 35 34 35 34 30 26 28 27 25 23 24 26 29 31 32 32 30 29 29 31 31 32 32 33 33 34 35 38 39 40 38 36 36 38 39 40 39 39 39 40 41 40 40 40 40 42 42 42 41 40 40
36 36 35 34 30 30 28 30 28 22 21 25 25 22 24 27 29 28 30 28 28 30 30 30 29 32 33 35 36 38 40 39 36 37 37 38 38 38 40 40 41 41 40 40 41 41 40 37 39 41 40 39 37 36
37 33 31 29 29 26 30 28 26 22 22 22 21 21 22 27 29 29 25 26 29 26 27 27 31 35 36 37 38 39 38 35 35 36 37 37 37 39 39 40 40 41 41 41 41 41 40 40 37 37 35 34 35 34
28 27 29 27 29 27 27 25 23 21 24 25 22 25 25 28 25 23 21 26 31 34 36 37 37 37 36 36 38 37 36 36 35 36 37 38 37 38 39 40 40 40 40 39 37 35 35 35 35 35 36 35 35 34
25 30 27 28 29 26 23 24 26 24 23 25 24 25 28 25 24 22 20 30 36 36 36 35 34 34 35 38 37 35 37 37 37 38 39 39 39 40 40 39 39 39 41 39 37 36 36 36 35 35 35 35 34 35
21 25 30 28 27 23 26 26 26 27 27 25 23 26 26 24 24 25 35 36 35 35 35 34 35 35 36 37 37 37 37 38 38 38 39 39 41 41 42 40 37 39 41 40 38 37 35 35 35 36 35 36 36 35
29 26 27 27 28 28 29 27 27 27 21 22 23 27 27 26 26 34 35 35 35 35 35 35 35 37 36 36 36 35 35 36 36 37 37 36 35 36 37 37 36 34 36 36 35 36 36 36 35 35 35 36 35 36
31 29 28 28 30 26 29 28 25 23 26 26 30 22 26 32 33 33 34 34 35 34 35 33 34 36 35 35 36 36 38 39 41 35 34 33 34 33 36 36 37 37 38 37 32 34 35 35 36 36 36 35 35 35
30 30 30 30 27 26 33 35 33 36 34 33 33 32 32 33 34 35 34 35 34 33 32 32 34 34 33 34 32 33 33 34 35 36 34 32 32 34 34 34 34 35 35 35 35 35 33 35 34 35 34 34 34 34
31 31 31 29 30 33 33 36 36 36 35 34 35 34 32 33 35 35 33 33 32 32 32 32 32 33 33 33 33 33 31 33 34 34 34 34 34 33 34 34 34 35 35 35 35 35 35 34 34 34 34 33 33 33
33 32 31 28 30 33 34 34 32 34 34 33 33 33 33 33 31 33 32 32 32 32 32 32 31 30 32 33 33 33 32 33 33 34 33 33 33 34 35 35 34 35 34 34 35 35 35 34 33 33 33 32 32 31
33 34 34 32 30 30 33 33 30 32 33 32 32 33 32 31 29 31 33 32 32 32 32 32 32 32 32 32 32 32 32 32 31 30 31 32 32 33 34 34 34 34 34 34 34 34 34 33 32 31 30 30 29 28
Lifted_Index
4 4 5 5 6 7 7 8 9 9 9 9 9 8 7 6 6 6 5 4 4 4 5 4 4 5 5 5 5 5 5 5 5 4 5 5 5 5 5 5 5 4 3 3 3 3 4 5 5 5 4 5 5 4
3 3 3 4 5 6 6 7 8 9 9 9 9 8 7 6 6 5 4 4 3 4 5 5 5 5 5 5 5 5 5 5 4 4 4 5 5 5 5 5 5 5 4 3 3 4 4 5 5 5 5 5 5 4
2 2 2 3 3 4 4 5 7 8 9 9 9 7 6 5 5 4 4 3 3 4 5 5 5 5 5 5 5 5 5 5 5 5 5 5 5 6 6 6 6 5 5 5 4 5 5 5 5 5 5 5 5 5
2 2 2 3 3 3 3 4 6 7 8 8 8 6 5 4 4 4 3 3 3 4 4 5 5 5 5 5 5 5 5 5 5 5 5 5 6 6 6 6 6 6 6 6 6 6 6 6 6 6 6 5 5 5
2 2 3 3 3 3 3 4 4 5 6 6 5 5 4 4 3 3 3 3 3 3 4 5 5 5 5 5 5 5 5 5 5 5 5 5 5 5 6 6 7 7 7 6 6 6 6 6 6 6 6 6 6 6
2 3 3 3 3 3 3 3 4 4 4 3 3 3 3 3 3 3 3 3 3 3 4 5 5 5 5 5 5 4 4 4 4 4 4 5 5 5 6 7 8 7 6 6 5 5 5 6 6 6 6 6 6 6
3 3 3 3 3 3 3 3 3 3 3 2 2 2 2 2 2 2 2 2 2 3 4 5 6 5 5 4 3 3 3 3 3 3 4 4 4 5 6 7 8 7 5 4 4 3 4 5 6 6 5 5 5 5
3 3 3 3 3 3 3 3 3 3 2 1 1 2 2 2 2 2 2 1 2 3 4 5 5 5 3 2 1 1 1 1 2 2 3 3 4 5 6 7 7 6 5 4 3 3 4 5 5 5 5 5 5 5
3 3 3 3 3 4 3 3 2 2 2 1 2 2 2 2 1 1 1 1 1 2 3 4 4 4 2 1 1 0 1 1 1 2 2 3 4 6 6 6 6 5 5 4 3 3 4 5 5 5 5 6 6 6
3 3 3 3 4 4 3 2 2 2 2 2 2 2 1 1 1 1 1 1 1 2 3 3 3 2 2 1 1 1 1 1 2 2 2 3 5 5 5 5 5 5 4 4 4 4 4 5 5 5 5 6 6 5
3 3 3 4 4 3 3 2 2 2 2 2 1 1 1 1 1 1 1 1 1 2 3 2 2 1 1 1 1 1 1 2 2 2 3 4 4 4 4 4 4 4 3 3 3 3 4 5 5 5 5 5 4 4
3 3 4 4 3 3 2 2 2 1 1 1 1 1 0 0 1 1 1 1 1 2 2 1 1 1 0 0 0 1 1 2 3 3 3 4 4 4 4 4 3 3 2 1 1 2 4 5 5 4 4 4 3 3
3 3 3 3 3 2 2 2 1 1 1 0 0 0 0 0 0 0 0 0 0 1 1 0 0 0 0 0 0 1 1 2 2 3 3 3 4 4 4 4 3 2 2 1 1 2 3 4 4 4 4 3 3 3
3 3 3 3 2 2 2 2 2 1 1 0 1 1 0 0 0 -0 -0 -0 0 0 0 0 0 0 0 0 1 1 2 2 2 3 3 4 4 5 5 4 3 3 2 2 2 2 3 3 3 4 4 4 4 4
3 3 3 2 2 2 2 2 2 1 1 1 1 0 0 -0 -0 -0 -0 -0 0 0 0 0 0 0 0 1 1 1 2 2 2 3 4 5 6 6 6 5 4 3 3 3 3 2 2 3 3 4 4 5 6 6
3 2 2 2 1 1 1 1 1 2 2 1 1 0 -0 -0 -0 -0 -0 0 0 0 0 0 0 1 1 1 2 2 2 2 2 3 5 6 7 7 7 6 5 4 4 3 3 2 3 3 3 4 5 6 6 6
2 2 1 1 1 1 1 1 2 2 2 1 1 0 0 0 0 0 0 0 0 0 0 1 1 2 2 2 3 3 3 3 4 5 6 6 7 7 7 6 6 5 5 4 3 3 4 4 5 5 6 6 6 6
2 1 1 1 1 1 2 2 2 2 1 1 1 0 0 0 0 0 0 0 0 0 1 1 2 2 3 3 4 4 4 5 6 6 7 7 7 7 7 6 6 6 6 6 5 5 5 5 5 6 6 6 7 7
2 2 1 1 1 2 2 2 2 2 1 1 1 0 0 0 0 0 0 0 0 1 1 2 3 3 4 4 4 5 5 6 7 7 6 7 7 7 6 5 5 5 5 6 6 6 6 6 6 6 6 7 8 8
2 2 2 1 2 2 1 1 2 2 1 1 0 0 0 0 0 0 0 0 1 1 2 3 3 4 4 5 5 5 6 7 7 6 6 6 7 6 5 5 4 4 4 4 5 5 5 5 6 7 8 8 9 9
2 2 2 2 2 2 2 1 2 1 1 1 0 0 0 1 1 0 0 1 1 2 3 3 3 4 5 5 5 6 6 7 6 6 6 6 6 5 4 4 3 3 2 3 3 4 5 6 7 8 9 9 9 9
2 2 2 2 2 2 2 2 1 1 1 1 1 1 1 1 0 0 1 2 2 3 2 3 4 5 5 6 6 6 6 6 6 6 6 6 5 4 3 3 2 2 2 3 4 5 7 8 8 9 9 9 9 9
2 2 2 3 3 3 2 2 1 1 1 1 1 1 0 0 0 1 1 2 3 2 2 3 4 5 6 6 6 6 6 5 5 5 5 5 5 4 3 2 2 2 3 4 6 7 8 9 9 10 10 10 10 10
3 3 3 3 3 2 2 2 1 1 1 1 1 0 0 0 0 1 2 3 2 2 3 4 5 5 5 5 5 5 5 5 4 5 5 4 4 4 4 3 3 4 5 7 8 8 9 9 10 10 10 10 10 10
3 3 3 2 2 2 1 1 1 1 1 1 0 0 0 0 0 1 2 2 2 2 3 4 5 5 5 5 4 5 5 5 4 4 4 4 4 4 4 4 5 6 7 8 8 9 9 9 9 10 10 10 10 10
3 2 2 1 1 1 1 1 0 0 0 0 -0 -0 -0 0 1 1 2 2 2 3 4 5 5 5 4 4 4 4 5 5 4 4 5 5 5 5 5 5 6 7 8 8 8 9 9 9 10 10 10 10 10 10
2 1 1 1 0 0 0 0 0 0 0 -0 -0 -0 -0 0 1 1 2 3 3 4 5 5 4 4 4 4 4 5 5 5 5 5 5 6 6 6 6 6 7 8 8 8 9 9 9 9 10 10 10 10 10 10
1 1 1 1 1 0 0 0 0 0 -0 0 0 0 0 0 1 1 3 4 4 5 5 5 4 4 4 4 5 5 5 5 5 5 6 6 6 6 6 7 7 8 8 9 9 9 9 9 10 10 9 9 9 9
0 0 0 1 1 0 0 -0 -0 -0 -0 0 0 0 1 1 2 2 3 4 5 5 5 5 4 4 4 4 5 5 5 5 5 6 6 6 7 7 8 8 8 9 9 9 9 9 9 9 9 9 8 8 8 8
0 0 0 1 1 0 0 0 -0 -0 0 0 1 1 2 2 3 3 4 5 5 5 5 4 4 4 4 4 5 5 5 6 6 7 7 8 8 8 9 9 9 9 9 9 9 9 8 8 8 8 8 8 8 8
0 0 0 1 1 1 1 1 1 1 1 1 1 2 2 3 3 4 4 5 6 6 5 5 4 4 5 5 5 6 6 7 7 8 8 8 9 9 9 9 9 9 9 9 8 8 8 8 8 7 7 7 8 8
1 1 1 1 1 1 1 1 1 1 2 2 2 2 3 3 4 4 5 5 6 6 6 5 5 5 6 6 6 7 7 8 8 8 8 8 8 8 8 8 8 8 8 8 8 8 8 7 7 7 8 8 8 8
1 1 1 1 1 1 1 1 1 1 2 2 2 3 3 4 4 5 5 6 6 6 6 6 5 6 6 7 7 7 8 8 8 8 7 7 7 7 8 8 8 8 8 8 8 7 7 7 8 8 8 8 8 8